Flag for Germany Weather past 2 weeks in Burgdorf, Lower Saxony, Germany

Now
66 °F

Partly sunny.


Feels Like: 66 °F
Forecast: 62 / 74 °F
Wind: 7 mph from South

Location: Celle Airport

Current Time: Jul 5, 2015 at 9:51:21 PM

Latest Report: Jul 5, 2015 at 9:20 PM


Visibility: N/A

Pressure: 29.89 "Hg

Humidity: 94%

Dew point: 64 °F

Location of BurgdorfLocation

Historic Weather in Burgdorf — Graph

°F

Burgdorf temperature yesterday

Maximum temperature yesterday: 99 °F (at 3:20 PM)
Minimum temperature yesterday: 68 °F (at 4:20 AM)
Average temperature yesterday: 84 °F

Past Weeks' High & Low Weather Summary

 TemperatureHumidityPressure
High99 °F (Jul 4, 3:20 PM)100% (Jun 23, 12:20 AM)30.27 "Hg (Jun 23, 12:20 AM)
Low46 °F (Jun 21, 1:20 AM)31% (Jul 1, 5:20 PM)29.65 "Hg (Jun 22, 9:20 PM)
Average66 °F67%30.05 "Hg
* Reported Jun 20 8:20 PM — Jul 5 8:20 PM, Burgdorf, Weather by CustomWeather, © 2015

Note: Actual official high and low records may vary slightly from our data, if they occured in-between our weather recording intervals... More about our weather records

Advertising

Burgdorf weather history for previous 24 hours

 ConditionsComfort  
Time TempWeatherWind HumidityBarometerVisibility
8:20 PM
Sun, Jul 5
68 °FThunderstorms. Broken clouds.6 mph88%29.86 "HgN/A
7:20 PM68 °FStrong thunderstorms. Overcast.28 mph83%29.95 "Hg1 mi
6:20 PM84 °FThunderstorms. Partly sunny.5 mph55%29.89 "HgN/A
5:20 PM86 °FScattered clouds.7 mph49%29.89 "HgN/A
4:20 PM86 °FScattered clouds.7 mph43%29.95 "HgN/A
3:20 PM86 °FScattered clouds.9 mph43%29.98 "HgN/A
2:20 PM82 °FPartly sunny.7 mph58%30.01 "HgN/A
1:20 PM86 °FPartly sunny.13 mph52%30.04 "HgN/A
12:20 PM88 °FPartly sunny.2 mph46%30.01 "HgN/A
11:20 AM86 °FScattered clouds.3 mph52%30.04 "HgN/A
10:20 AM82 °FPassing clouds.5 mph55%30.07 "HgN/A
9:20 AM79 °FPassing clouds.3 mph61%30.07 "HgN/A
8:20 AM73 °FPassing clouds.3 mph78%30.07 "HgN/A
7:20 AM72 °FPartly sunny.2 mph83%30.07 "HgN/A
6:20 AM70 °FPartly sunny.2 mph88%30.07 "HgN/A
5:20 AM70 °FPassing clouds.No wind83%30.07 "HgN/A
4:20 AM70 °FPassing clouds.2 mph83%30.07 "HgN/A
3:20 AM72 °FPassing clouds.2 mph78%30.07 "HgN/A
2:20 AM73 °FPassing clouds.1 mph74%30.07 "HgN/A
1:20 AM75 °FPassing clouds.6 mph69%30.07 "HgN/A
12:20 AM77 °FPassing clouds.1 mph65%30.07 "HgN/A
11:20 PM
Sat, Jul 4
79 °FPassing clouds.6 mph61%30.07 "HgN/A
10:20 PM81 °FPartly sunny.7 mph58%30.04 "HgN/A
9:20 PM86 °FPartly sunny.7 mph46%30.04 "HgN/A
Weather by CustomWeather, © 2015

See weather overviewHow to use our weather pages